カタログに戻る

FENGYUN 1C DEB

運用中SSO
NORAD 33710·DEBRIS·🇨🇳 China

打ち上げ May 10, 1999 から Taiyuan Satellite Launch Center

Loading…

次のパス (今後24時間)

TLE

経年Source: Space-Track

元期: Sep 9, 2026, 12:23 UTC

1 33710U 99025DGX 26252.51604538  .00000890  00000-0  49882-3 0  9999
2 33710  98.9847 356.7761 0055688 104.0927 256.6443 14.12488296714783

AllMySatでFENGYUN 1C DEBをリアルタイム追跡

Download on the App Store